Coraopolis, PA

11:21 AM EDT on July 24, 2016 (GMT -0400)
Moon Township | | Change Station
Active Advisory: Heat Advisory Active Notice: Local Storm Report

Elev 1073 ft 40.52 °N, 80.20 °W | Updated 12 minutes ago

Scattered Clouds
Scattered Clouds
91.1 °F
Feels Like 96 °F
N
0.0
Wind Variable Wind from North

Today
High -- | Low -- °F
--% Chance of Precip.
Yesterday
High -- | Low -- °F
Precip. -- in
Pressure 30.04 in
Visibility 10.0 miles
Clouds Few 6000 ft
Few 15000 ft
Scattered Clouds 25000 ft
Heat Index 96 °F
Dew Point 69 °F
Humidity 49%
Rainfall Not available.
Snow Depth Not available.
6:11 AM 8:43 PM
Waning Gibbous, 75% visible
METAR KPIT 241451Z 13004KT 10SM FEW060 FEW150 SCT250 28/19 A3005 RMK AO2 SLP171 T02830189 53005
Pressure 30.04 in
Visibility 10.0 miles
Clouds Few 6000 ft
Few 15000 ft
Scattered Clouds 25000 ft
Heat Index 96 °F
Dew Point 69 °F
Humidity 49%
Rainfall Not available.
Snow Depth Not available.
6:11 AM 8:43 PM
Waning Gibbous, 75% visible
METAR KPIT 241451Z 13004KT 10SM FEW060 FEW150 SCT250 28/19 A3005 RMK AO2 SLP171 T02830189 53005

10-Day Weather Forecast

Almanac

Astronomy

Jul. 24, 2016 Rise Set
Actual Time
Civil Twilight
Nautical Twilight
Astronomical Twilight
Moon
Length of Visible Light
Length of Day
Tomorrow will be .
, % of the Moon is Illuminated

Today's Extremes

State Highs State Lows

Community

WunderPhotos

Upload Photos

1,927,086 photos uploaded!

WunderBlog® & News

Nearby

Air Quality

  Air Quality AQ Index Pollutant
Not available.

Snow Depth

Station Depth Elevation

Earthquake Activity

City Distance Mag. Time & Date
Minimum magnitude displayed is 2.5.

Coastal Water Temperatures

Place Temperature

Stations

Nearby Weather Stations

Station Location Temp. Windchill Dew Point Humidity Wind Precip. Elev Updated Type
                   

Watches & Warnings

Heat Advisory
Issued: 10:57 AM EDT Jul. 24, 2016 – National Weather Service

... Heat advisory remains in effect until 8 PM EDT this evening...

* heat index values... between 100 to 104 are forecast this
afternoon and evening.

* High temperatures... lower to mid 90s.

* Dewpoints... lower 70s.

* Impacts... heat related illnesses will begin to be seen. If you
are susceptible to heat... limit your outdoor activity.

Precautionary/preparedness actions...

Drink plenty of fluids... stay in air-conditioning... stay out of
the sun... and check up on elderly relatives and neighbors. Look
before you lock... never leave children and pets unattended in a
vehicle.



98